Wrangell, AK

3:37 AM AKDT on March 28, 2017 (GMT -0800)
Wrangell

Weather History for PAWG - December, 2013

Change the Weather History Date:

Friday, December 6, 2013

  Actual Average Record
Temperature  
Mean Temperature 22 °F -  
Max Temperature 28 °F 37 °F 52 °F (1959)
Min Temperature 17 °F 27 °F 5 °F (1977)
Degree Days  
Heating Degree Days 42    
Moisture  
Dew Point 10 °F    
Average Humidity 58    
Maximum Humidity 68    
Minimum Humidity 47    
Precipitation  
Precipitation 0.00 in - - ()
Sea Level Pressure  
Sea Level Pressure 30.61 in    
Wind  
Wind Speed 5 mph (North)    
Max Wind Speed 12 mph    
Max Gust Speed -    
Visibility 10 miles    
Events      
Averages and records for this station are not official NWS values.
T = Trace of Precipitation, MM = Missing Value Source: NWS Daily Summary

Daily Weather History Graph

Daily Weather History Graph

Search for Another Location

Airport or City:

Trip Planner

Search our weather history database for the weather conditions in past years. The results will help you decide how hot, cold, wet, or windy it might be!

Date:

Astronomy

Dec. 06, 2013 Rise Set
Actual Time 8:07 AM AKST 3:13 PM AKST
Civil Twilight 7:20 AM AKST 4:00 PM AKST
Nautical Twilight 6:31 AM AKST 4:49 PM AKST
Astronomical Twilight 5:45 AM AKST 5:35 PM AKST
Moon 10:47 AM AKST (12/6) 8:28 PM AKST (12/6)
Length of Visible Light 8h 40m
Length of Day
7h 05m
Waxing Crescent, 20% of the Moon is Illuminated
Dec 6
Waxing Crescent
Dec 9
First Quarter
Dec 17
Full
Dec 25
Last Quarter
Jan 1
New

Hourly Weather History & Observations

Time (AKST) Temp. Windchill Dew Point Humidity Pressure Visibility Wind Dir Wind Speed Gust Speed Precip Events Conditions
12:16 AM 28.4 °F - 10.4 °F 47% 30.61 in 10.0 mi Calm Calm - N/A   Clear
12:36 AM 28.4 °F 22.2 °F 12.2 °F 51% 30.61 in 10.0 mi ESE 5.8 mph - N/A   Clear
12:56 AM 28.4 °F - 10.4 °F 47% 30.62 in 10.0 mi Calm Calm - N/A   Clear
1:16 AM 28.4 °F 20.4 °F 12.2 °F 51% 30.62 in 10.0 mi ESE 8.1 mph - N/A   Clear
1:36 AM 28.4 °F 22.2 °F 12.2 °F 51% 30.62 in 10.0 mi South 5.8 mph - N/A   Clear
1:56 AM 28.4 °F 22.2 °F 12.2 °F 51% 30.62 in 10.0 mi WSW 5.8 mph - N/A   Clear
2:16 AM 28.4 °F - 12.2 °F 51% 30.63 in 10.0 mi Calm Calm - N/A   Clear
2:36 AM 28.4 °F 18.5 °F 12.2 °F 51% 30.63 in 10.0 mi ENE 11.5 mph - N/A   Clear
2:56 AM 28.4 °F 19.1 °F 12.2 °F 51% 30.63 in 10.0 mi East 10.4 mph - N/A   Clear
3:16 AM 26.6 °F 17.5 °F 12.2 °F 55% 30.64 in 10.0 mi ENE 9.2 mph - N/A   Clear
3:36 AM 28.4 °F 19.1 °F 12.2 °F 51% 30.64 in 10.0 mi ENE 10.4 mph - N/A   Clear
3:56 AM 26.6 °F 18.2 °F 12.2 °F 55% 30.64 in 10.0 mi East 8.1 mph - N/A   Clear
4:16 AM 26.6 °F 18.2 °F 12.2 °F 55% 30.64 in 10.0 mi East 8.1 mph - N/A   Clear
4:36 AM 26.6 °F 18.2 °F 12.2 °F 55% 30.63 in 10.0 mi East 8.1 mph - N/A   Clear
4:56 AM 26.6 °F 19.1 °F 12.2 °F 55% 30.63 in 10.0 mi East 6.9 mph - N/A   Clear
5:16 AM 26.6 °F 19.1 °F 10.4 °F 51% 30.63 in 10.0 mi ESE 6.9 mph - N/A   Clear
5:36 AM 26.6 °F 20.0 °F 10.4 °F 51% 30.64 in 10.0 mi East 5.8 mph - N/A   Clear
5:56 AM 24.8 °F - 10.4 °F 54% 30.64 in 10.0 mi Calm Calm - N/A   Clear
6:16 AM 23.0 °F 17.0 °F 10.4 °F 59% 30.65 in 10.0 mi SSE 4.6 mph - N/A   Clear
6:36 AM 23.0 °F 15.8 °F 10.4 °F 59% 30.64 in 10.0 mi SSE 5.8 mph - N/A   Clear
6:56 AM 23.0 °F 18.4 °F 10.4 °F 59% 30.64 in 10.0 mi SE 3.5 mph - N/A   Clear
7:16 AM 21.2 °F - 10.4 °F 63% 30.64 in 10.0 mi Calm Calm - N/A   Clear
7:36 AM 21.2 °F - 10.4 °F 63% 30.64 in 10.0 mi Calm Calm - N/A   Clear
7:56 AM 21.2 °F - 10.4 °F 63% 30.64 in 10.0 mi Calm Calm - N/A   Partly Cloudy
8:16 AM 23.0 °F - 10.4 °F 59% 30.64 in 10.0 mi Calm Calm - N/A   Partly Cloudy
8:36 AM 23.0 °F 17.0 °F 10.4 °F 59% 30.64 in 10.0 mi NNW 4.6 mph - N/A   Partly Cloudy
8:56 AM 23.0 °F 14.7 °F 10.4 °F 59% 30.64 in 10.0 mi NNW 6.9 mph - N/A   Partly Cloudy
9:16 AM 23.0 °F 14.7 °F 8.6 °F 54% 30.65 in 10.0 mi NNW 6.9 mph - N/A   Partly Cloudy
9:36 AM 23.0 °F 17.0 °F 8.6 °F 54% 30.65 in 10.0 mi North 4.6 mph - N/A   Partly Cloudy
9:56 AM 23.0 °F 18.4 °F 8.6 °F 54% 30.65 in 10.0 mi North 3.5 mph - N/A   Scattered Clouds
10:16 AM 23.0 °F - 10.4 °F 59% 30.65 in 10.0 mi Calm Calm - N/A   Scattered Clouds
10:36 AM 23.0 °F - 10.4 °F 59% 30.65 in 10.0 mi Calm Calm - N/A   Scattered Clouds
10:56 AM 23.0 °F 14.7 °F 10.4 °F 59% 30.65 in 10.0 mi NNW 6.9 mph - N/A   Scattered Clouds
11:16 AM 23.0 °F 15.8 °F 10.4 °F 59% 30.65 in 10.0 mi NNW 5.8 mph - N/A   Scattered Clouds
11:36 AM 23.0 °F 17.0 °F 8.6 °F 54% 30.64 in 10.0 mi NNW 4.6 mph - N/A   Scattered Clouds
11:56 AM 23.0 °F - 8.6 °F 54% 30.64 in 10.0 mi Calm Calm - N/A   Partly Cloudy
12:16 PM 23.0 °F 14.7 °F 10.4 °F 59% 30.64 in 10.0 mi NW 6.9 mph - N/A   Partly Cloudy
12:36 PM 23.0 °F 15.8 °F 10.4 °F 59% 30.63 in 10.0 mi NNW 5.8 mph - N/A   Partly Cloudy
12:56 PM 24.8 °F 19.1 °F 10.4 °F 54% 30.63 in 10.0 mi NNW 4.6 mph - N/A   Partly Cloudy
1:16 PM 24.8 °F 19.1 °F 10.4 °F 54% 30.62 in 10.0 mi WNW 4.6 mph - N/A   Partly Cloudy
1:36 PM 24.8 °F 17.9 °F 10.4 °F 54% 30.62 in 10.0 mi NNW 5.8 mph - N/A   Partly Cloudy
1:56 PM 24.8 °F 17.9 °F 10.4 °F 54% 30.62 in 10.0 mi NW 5.8 mph - N/A   Clear
2:16 PM 23.0 °F 17.0 °F 10.4 °F 59% 30.61 in 10.0 mi North 4.6 mph - N/A   Clear
2:36 PM 23.0 °F 13.9 °F 10.4 °F 59% 30.61 in 10.0 mi NNW 8.1 mph - N/A   Partly Cloudy
2:56 PM 23.0 °F 14.7 °F 8.6 °F 54% 30.61 in 10.0 mi NNW 6.9 mph - N/A   Clear
3:16 PM 23.0 °F 13.1 °F 10.4 °F 59% 30.61 in 10.0 mi NNW 9.2 mph - N/A   Clear
3:36 PM 23.0 °F 15.8 °F 10.4 °F 59% 30.61 in 10.0 mi North 5.8 mph - N/A   Clear
3:56 PM 23.0 °F 17.0 °F 10.4 °F 59% 30.60 in 10.0 mi North 4.6 mph - N/A   Clear
4:16 PM 23.0 °F 17.0 °F 10.4 °F 59% 30.60 in 10.0 mi NNW 4.6 mph - N/A   Clear
4:36 PM 21.2 °F 11.7 °F 10.4 °F 63% 30.60 in 10.0 mi NNW 8.1 mph - N/A   Clear
4:56 PM 21.2 °F 13.6 °F 10.4 °F 63% 30.59 in 10.0 mi NNW 5.8 mph - N/A   Clear
5:16 PM 21.2 °F 11.7 °F 10.4 °F 63% 30.60 in 10.0 mi NNW 8.1 mph - N/A   Clear
5:36 PM 21.2 °F 13.6 °F 10.4 °F 63% 30.59 in 10.0 mi NNW 5.8 mph - N/A   Clear
5:56 PM 21.2 °F 16.4 °F 8.6 °F 58% 30.59 in 10.0 mi NNW 3.5 mph - N/A   Clear
6:16 PM 21.2 °F 14.9 °F 10.4 °F 63% 30.59 in 10.0 mi NNW 4.6 mph - N/A   Clear
6:36 PM 21.2 °F 11.7 °F 10.4 °F 63% 30.58 in 10.0 mi NNW 8.1 mph - N/A   Clear
6:56 PM 19.4 °F 11.5 °F 10.4 °F 68% 30.58 in 10.0 mi NNW 5.8 mph - N/A   Clear
7:16 PM 21.2 °F 10.9 °F 10.4 °F 63% 30.58 in 10.0 mi NNW 9.2 mph - N/A   Clear
7:36 PM 19.4 °F 10.4 °F 8.6 °F 63% 30.58 in 10.0 mi NNW 6.9 mph - N/A   Clear
7:56 PM 19.4 °F 11.5 °F 10.4 °F 68% 30.57 in 10.0 mi NNW 5.8 mph - N/A   Clear
8:16 PM 19.4 °F 11.5 °F 8.6 °F 63% 30.57 in 10.0 mi NNW 5.8 mph - N/A   Clear
8:36 PM 19.4 °F 12.8 °F 8.6 °F 63% 30.56 in 10.0 mi NNW 4.6 mph - N/A   Clear
8:56 PM 19.4 °F 9.5 °F 8.6 °F 63% 30.56 in 10.0 mi NNW 8.1 mph - N/A   Clear
9:16 PM 19.4 °F 8.6 °F 8.6 °F 63% 30.57 in 10.0 mi NNW 9.2 mph - N/A   Clear
9:36 PM 19.4 °F 14.3 °F 8.6 °F 63% 30.55 in 10.0 mi NNW 3.5 mph - N/A   Clear
9:56 PM 19.4 °F 11.5 °F 8.6 °F 63% 30.55 in 10.0 mi NW 5.8 mph - N/A   Clear
10:16 PM 19.4 °F 10.4 °F 8.6 °F 63% 30.54 in 10.0 mi NNW 6.9 mph - N/A   Clear
10:36 PM 19.4 °F 12.8 °F 8.6 °F 63% 30.54 in 10.0 mi NNW 4.6 mph - N/A   Clear
10:56 PM 17.6 °F 9.3 °F 8.6 °F 68% 30.53 in 10.0 mi NNW 5.8 mph - N/A   Clear
11:16 PM 17.6 °F 10.7 °F 8.6 °F 68% 30.53 in 10.0 mi NNW 4.6 mph - N/A   Clear
11:36 PM 19.4 °F 11.5 °F 8.6 °F 63% 30.52 in 10.0 mi NNW 5.8 mph - N/A   Clear
11:56 PM 17.6 °F 10.7 °F 8.6 °F 68% 30.51 in 10.0 mi NNW 4.6 mph - N/A   Clear